LXJ952 KMRY-KCRQ

Flight info

Callsign LXJ952
Flight time 0h 50m
Altitude 39000
Route SERFR TILLT LEGOZ2
Aircraft C750/M-VGDW/C

Departure

Time 2026-04-24 11:07
Airport Monterey Regional Airport (KMRY)

Arrival

Time 2026-04-24 11:57
Airport McClellan-Palomar Airport (KCRQ)
Time Latitude Longitude Altitude Speed Heading
2026-04-24 10:57 36.58892 -121.85418 206 ft 0 kts 293°
2026-04-24 11:03 36.58893 -121.85420 206 ft 2 kts 293°
2026-04-24 11:03 36.58929 -121.85431 206 ft 11 kts 42°
2026-04-24 11:04 36.58910 -121.85298 205 ft 21 kts 113°
2026-04-24 11:04 36.58845 -121.85107 209 ft 26 kts 113°
2026-04-24 11:04 36.58773 -121.84894 206 ft 26 kts 112°
2026-04-24 11:04 36.58703 -121.84686 206 ft 26 kts 113°
2026-04-24 11:05 36.58622 -121.84491 206 ft 25 kts 112°
2026-04-24 11:05 36.58553 -121.84290 210 ft 25 kts 113°
2026-04-24 11:05 36.58483 -121.84082 206 ft 30 kts 112°
2026-04-24 11:05 36.58395 -121.83819 206 ft 33 kts 112°
2026-04-24 11:06 36.58319 -121.83599 206 ft 20 kts 113°
2026-04-24 11:06 36.58285 -121.83436 206 ft 19 kts 90°
2026-04-24 11:06 36.58336 -121.83363 212 ft 11 kts 322°
2026-04-24 11:06 36.58385 -121.83504 210 ft 48 kts 293°
2026-04-24 11:07 36.59091 -121.85586 477 ft 169 kts 291°
2026-04-24 11:07 36.59532 -121.86942 1132 ft 168 kts 292°
2026-04-24 11:07 36.59935 -121.88304 1908 ft 169 kts 291°
2026-04-24 11:08 36.60189 -121.89246 2417 ft 170 kts 291°
2026-04-24 11:08 36.60441 -121.91188 3349 ft 181 kts 265°
2026-04-24 11:08 36.59939 -121.92626 4136 ft 185 kts 237°
2026-04-24 11:08 36.58913 -121.93615 4884 ft 192 kts 205°
2026-04-24 11:09 36.57596 -121.93836 5597 ft 194 kts 173°
2026-04-24 11:09 36.56369 -121.93190 6313 ft 193 kts 141°
2026-04-24 11:09 36.55385 -121.92063 7055 ft 192 kts 134°
2026-04-24 11:09 36.54708 -121.91279 7442 ft 205 kts 135°
2026-04-24 11:10 36.53592 -121.89997 7991 ft 232 kts 136°
2026-04-24 11:10 36.52363 -121.88581 8635 ft 256 kts 136°
2026-04-24 11:10 36.50995 -121.87001 9247 ft 280 kts 136°
2026-04-24 11:10 36.49515 -121.85295 9955 ft 295 kts 136°
2026-04-24 11:11 36.47984 -121.83531 10635 ft 310 kts 137°
2026-04-24 11:11 36.46336 -121.81633 10906 ft 337 kts 137°
2026-04-24 11:11 36.44555 -121.79582 11079 ft 362 kts 137°
2026-04-24 11:11 36.42693 -121.77440 11831 ft 366 kts 137°
2026-04-24 11:12 36.40809 -121.75274 12568 ft 372 kts 138°
2026-04-24 11:12 36.38895 -121.73076 13257 ft 378 kts 138°
2026-04-24 11:12 36.36957 -121.70851 13952 ft 382 kts 139°
2026-04-24 11:12 36.34991 -121.68596 14600 ft 387 kts 139°
2026-04-24 11:13 36.33002 -121.66315 15222 ft 392 kts 139°
2026-04-24 11:13 36.30985 -121.64005 15883 ft 397 kts 139°
2026-04-24 11:13 36.28950 -121.61676 16559 ft 401 kts 140°
2026-04-24 11:13 36.26880 -121.59310 17140 ft 408 kts 140°
2026-04-24 11:14 36.24791 -121.56920 17904 ft 410 kts 140°
2026-04-24 11:14 36.22682 -121.54512 18584 ft 416 kts 140°
2026-04-24 11:14 36.20543 -121.52072 19194 ft 420 kts 141°
2026-04-24 11:14 36.18376 -121.49602 19815 ft 426 kts 141°
2026-04-24 11:15 36.16187 -121.47106 20504 ft 431 kts 141°
2026-04-24 11:15 36.13967 -121.44579 21163 ft 436 kts 141°
2026-04-24 11:15 36.11722 -121.42025 21841 ft 441 kts 142°
2026-04-24 11:15 36.09444 -121.39437 22469 ft 447 kts 142°
2026-04-24 11:16 36.07058 -121.36959 23032 ft 449 kts 149°
2026-04-24 11:16 36.04382 -121.34997 23673 ft 446 kts 159°
2026-04-24 11:16 36.01574 -121.33342 24251 ft 449 kts 161°
2026-04-24 11:16 35.98749 -121.31666 24833 ft 452 kts 160°
2026-04-24 11:17 35.95910 -121.29958 25414 ft 456 kts 160°
2026-04-24 11:17 35.93046 -121.28247 25991 ft 459 kts 160°
2026-04-24 11:17 35.90194 -121.26562 26572 ft 462 kts 161°
2026-04-24 11:17 35.87286 -121.24842 27139 ft 466 kts 160°
2026-04-24 11:18 35.84356 -121.23099 27696 ft 470 kts 160°
2026-04-24 11:18 35.81404 -121.21343 28236 ft 473 kts 160°
2026-04-24 11:18 35.78426 -121.19581 28841 ft 476 kts 161°
2026-04-24 11:18 35.75430 -121.17812 29410 ft 480 kts 161°
2026-04-24 11:19 35.72406 -121.16024 29983 ft 484 kts 161°
2026-04-24 11:19 35.69356 -121.14219 30470 ft 487 kts 161°
2026-04-24 11:19 35.66296 -121.12411 30978 ft 490 kts 161°
2026-04-24 11:19 35.63232 -121.10604 31661 ft 487 kts 161°
2026-04-24 11:20 35.60183 -121.08805 32370 ft 485 kts 161°
2026-04-24 11:20 35.57145 -121.07018 33050 ft 484 kts 161°
2026-04-24 11:20 35.54116 -121.05236 33766 ft 481 kts 161°
2026-04-24 11:20 35.51100 -121.03462 34392 ft 480 kts 161°
2026-04-24 11:21 35.48109 -121.01703 34939 ft 476 kts 162°
2026-04-24 11:21 35.45155 -120.99700 34992 ft 497 kts 154°
2026-04-24 11:21 35.42341 -120.97084 35008 ft 517 kts 146°
2026-04-24 11:21 35.39645 -120.94082 35021 ft 531 kts 142°
2026-04-24 11:22 35.34148 -120.87822 35014 ft 545 kts 145°
2026-04-24 11:22 35.28316 -120.81786 35004 ft 553 kts 144°
2026-04-24 11:23 35.22615 -120.75452 34995 ft 552 kts 144°
2026-04-24 11:23 35.16793 -120.69339 34988 ft 552 kts 145°
2026-04-24 11:24 35.11049 -120.63087 34983 ft 553 kts 144°
2026-04-24 11:24 35.05244 -120.56944 34989 ft 551 kts 146°
2026-04-24 11:25 34.99024 -120.51659 34997 ft 544 kts 154°
2026-04-24 11:25 34.92697 -120.46595 35000 ft 545 kts 153°
2026-04-24 11:26 34.86417 -120.41459 35001 ft 543 kts 153°
2026-04-24 11:26 34.80098 -120.36407 34999 ft 544 kts 153°
2026-04-24 11:27 34.73810 -120.31304 34998 ft 543 kts 153°
2026-04-24 11:27 34.67541 -120.26290 34998 ft 543 kts 154°
2026-04-24 11:28 34.61247 -120.21236 34991 ft 543 kts 154°
2026-04-24 11:28 34.54935 -120.16201 34988 ft 543 kts 154°
2026-04-24 11:29 34.48616 -120.11154 34994 ft 544 kts 154°
2026-04-24 11:29 34.42297 -120.06125 34982 ft 543 kts 154°
2026-04-24 11:30 34.35972 -120.01096 34960 ft 544 kts 155°
2026-04-24 11:30 34.29634 -119.96068 34950 ft 545 kts 155°
2026-04-24 11:31 34.23334 -119.91079 34954 ft 545 kts 155°
2026-04-24 11:31 34.16982 -119.86058 34955 ft 545 kts 155°
2026-04-24 11:32 34.10684 -119.80898 34944 ft 554 kts 150°
2026-04-24 11:32 34.07825 -119.77775 34645 ft 553 kts 142°
2026-04-24 11:32 34.05345 -119.74248 33847 ft 549 kts 133°
2026-04-24 11:33 34.03358 -119.70388 33152 ft 533 kts 126°
2026-04-24 11:33 34.01554 -119.66566 32459 ft 517 kts 126°
2026-04-24 11:33 33.99720 -119.62888 31784 ft 507 kts 128°
2026-04-24 11:33 33.97844 -119.59306 31125 ft 505 kts 128°
2026-04-24 11:34 33.96013 -119.55723 30468 ft 513 kts 127°
2026-04-24 11:34 33.94193 -119.52015 29747 ft 516 kts 126°
2026-04-24 11:34 33.92369 -119.48322 29062 ft 509 kts 126°
2026-04-24 11:34 33.90531 -119.44720 28397 ft 502 kts 127°
2026-04-24 11:35 33.88710 -119.41157 27734 ft 497 kts 126°
2026-04-24 11:35 33.86976 -119.37581 27080 ft 493 kts 124°
2026-04-24 11:35 33.85290 -119.34010 26433 ft 487 kts 124°
2026-04-24 11:35 33.83585 -119.30520 25796 ft 481 kts 125°
2026-04-24 11:36 33.81869 -119.27098 25171 ft 476 kts 126°
2026-04-24 11:36 33.80187 -119.23688 24542 ft 471 kts 124°
2026-04-24 11:36 33.78546 -119.20297 23925 ft 466 kts 124°
2026-04-24 11:36 33.76919 -119.16968 23271 ft 461 kts 124°
2026-04-24 11:37 33.75290 -119.13681 22662 ft 454 kts 125°
2026-04-24 11:37 33.73680 -119.10426 22065 ft 451 kts 124°
2026-04-24 11:37 33.72094 -119.07196 21469 ft 447 kts 124°
2026-04-24 11:37 33.70523 -119.03998 20887 ft 443 kts 124°
2026-04-24 11:38 33.68946 -119.00840 20312 ft 439 kts 125°
2026-04-24 11:38 33.67365 -118.97726 19735 ft 435 kts 125°
2026-04-24 11:38 33.65807 -118.94640 19159 ft 431 kts 124°
2026-04-24 11:38 33.64270 -118.91567 18602 ft 427 kts 124°
2026-04-24 11:39 33.62746 -118.88529 18009 ft 423 kts 124°
2026-04-24 11:39 33.61230 -118.85526 17442 ft 418 kts 124°
2026-04-24 11:39 33.59730 -118.82557 16892 ft 414 kts 124°
2026-04-24 11:39 33.58249 -118.79620 16347 ft 411 kts 124°
2026-04-24 11:40 33.56737 -118.76772 15946 ft 416 kts 129°
2026-04-24 11:40 33.54992 -118.73976 15985 ft 419 kts 130°
2026-04-24 11:40 33.53278 -118.71140 15989 ft 421 kts 129°
2026-04-24 11:40 33.51574 -118.68302 15972 ft 415 kts 129°
2026-04-24 11:41 33.49894 -118.65563 15709 ft 404 kts 130°
2026-04-24 11:41 33.48219 -118.62866 15370 ft 403 kts 130°
2026-04-24 11:41 33.46573 -118.60166 15023 ft 402 kts 128°
2026-04-24 11:41 33.45163 -118.57184 14992 ft 415 kts 120°
2026-04-24 11:42 33.43840 -118.54167 14830 ft 402 kts 120°
2026-04-24 11:42 33.42517 -118.51229 14464 ft 400 kts 121°
2026-04-24 11:42 33.41187 -118.48325 14069 ft 396 kts 121°
2026-04-24 11:42 33.39880 -118.45438 13660 ft 393 kts 121°
2026-04-24 11:43 33.38595 -118.42569 13258 ft 390 kts 120°
2026-04-24 11:43 33.37346 -118.39696 12860 ft 387 kts 117°
2026-04-24 11:43 33.36688 -118.36629 12423 ft 372 kts 99°
2026-04-24 11:43 33.36358 -118.33664 12129 ft 347 kts 98°
2026-04-24 11:44 33.36022 -118.30886 11800 ft 329 kts 99°
2026-04-24 11:44 33.35678 -118.28234 11478 ft 319 kts 99°
2026-04-24 11:44 33.35352 -118.25628 11164 ft 316 kts 98°
2026-04-24 11:44 33.35035 -118.23032 10852 ft 315 kts 98°
2026-04-24 11:45 33.34696 -118.20439 10546 ft 316 kts 99°
2026-04-24 11:45 33.34344 -118.17849 10235 ft 316 kts 99°
2026-04-24 11:45 33.34000 -118.15260 9921 ft 314 kts 99°
2026-04-24 11:45 33.33663 -118.12685 9585 ft 312 kts 98°
2026-04-24 11:46 33.33331 -118.10167 9272 ft 309 kts 98°
2026-04-24 11:46 33.32995 -118.07643 8974 ft 306 kts 99°
2026-04-24 11:46 33.32663 -118.05145 8668 ft 302 kts 99°
2026-04-24 11:46 33.32335 -118.02682 8361 ft 298 kts 99°
2026-04-24 11:47 33.32011 -118.00249 8064 ft 295 kts 99°
2026-04-24 11:47 33.31688 -117.97833 7771 ft 293 kts 99°
2026-04-24 11:47 33.31367 -117.95435 7476 ft 291 kts 99°
2026-04-24 11:47 33.31049 -117.93055 7197 ft 289 kts 99°
2026-04-24 11:48 33.30731 -117.90689 6914 ft 287 kts 99°
2026-04-24 11:48 33.30416 -117.88343 6631 ft 285 kts 99°
2026-04-24 11:48 33.30102 -117.86007 6344 ft 283 kts 99°
2026-04-24 11:48 33.29790 -117.83696 6052 ft 281 kts 99°
2026-04-24 11:49 33.29479 -117.81394 5770 ft 279 kts 99°
2026-04-24 11:49 33.29171 -117.79112 5497 ft 278 kts 98°
2026-04-24 11:49 33.28863 -117.76832 5217 ft 277 kts 98°
2026-04-24 11:49 33.28434 -117.74608 4919 ft 275 kts 111°
2026-04-24 11:50 33.27790 -117.73334 4942 ft 266 kts 123°
2026-04-24 11:50 33.27498 -117.72829 4975 ft 266 kts 124°
2026-04-24 11:50 33.26438 -117.70970 5002 ft 274 kts 123°
2026-04-24 11:50 33.25386 -117.69067 5006 ft 275 kts 123°
2026-04-24 11:51 33.24331 -117.67155 5004 ft 276 kts 123°
2026-04-24 11:51 33.23267 -117.65251 5006 ft 276 kts 123°
2026-04-24 11:51 33.22200 -117.63347 5005 ft 276 kts 123°
2026-04-24 11:51 33.21140 -117.61447 5000 ft 276 kts 123°
2026-04-24 11:52 33.20074 -117.59537 5002 ft 276 kts 123°
2026-04-24 11:52 33.19010 -117.57634 4999 ft 276 kts 123°
2026-04-24 11:52 33.17943 -117.55726 4956 ft 276 kts 123°
2026-04-24 11:52 33.16894 -117.53853 4657 ft 265 kts 123°
2026-04-24 11:53 33.15892 -117.52063 4318 ft 254 kts 123°
2026-04-24 11:53 33.14932 -117.50344 4004 ft 245 kts 123°
2026-04-24 11:53 33.14019 -117.48703 3700 ft 236 kts 123°
2026-04-24 11:53 33.13133 -117.47116 3409 ft 219 kts 123°
2026-04-24 11:54 33.12304 -117.45632 3128 ft 213 kts 123°
2026-04-24 11:54 33.11495 -117.44184 2869 ft 212 kts 123°
2026-04-24 11:54 33.10741 -117.42642 2541 ft 214 kts 112°
2026-04-24 11:54 33.10711 -117.40904 2247 ft 214 kts 82°
2026-04-24 11:55 33.11006 -117.39213 2044 ft 195 kts 79°
2026-04-24 11:55 33.11254 -117.37764 1823 ft 168 kts 80°
2026-04-24 11:55 33.11471 -117.36411 1621 ft 167 kts 81°
2026-04-24 11:55 33.11691 -117.35032 1393 ft 170 kts 81°
2026-04-24 11:56 33.11915 -117.33649 1165 ft 168 kts 80°
2026-04-24 11:56 33.12124 -117.32362 940 ft 148 kts 79°
2026-04-24 11:56 33.12309 -117.31216 747 ft 138 kts 79°
2026-04-24 11:56 33.12487 -117.30113 566 ft 134 kts 79°
2026-04-24 11:57 33.12662 -117.29029 406 ft 132 kts 79°
2026-04-24 11:57 33.12820 -117.28029 332 ft 109 kts 79°
2026-04-24 11:57 33.12919 -117.27435 331 ft 32 kts 79°
2026-04-24 11:57 33.12938 -117.27263 331 ft 17 kts 111°
2026-04-24 11:58 33.12865 -117.27255 329 ft 7 kts 246°
2026-04-24 11:58 33.12850 -117.27342 328 ft 17 kts 259°
2026-04-24 11:58 33.12819 -117.27536 328 ft 25 kts 259°
2026-04-24 11:58 33.12786 -117.27739 329 ft 24 kts 259°
2026-04-24 11:59 33.12757 -117.27914 328 ft 17 kts 258°
2026-04-24 11:59 33.12743 -117.28006 328 ft 17 kts 258°
2026-04-24 11:59 33.12723 -117.28129 327 ft 11 kts 259°
2026-04-24 11:59 33.12682 -117.28190 328 ft 9 kts 231°
2026-04-24 12:00 33.12676 -117.28214 328 ft 0 kts 256°